Terug naar catalogus

STARLINK-1262

ActiefCommunicatieVLEO
NORAD 45366·PAYLOAD·🇺🇸 United States

Gelanceerd Mar 18, 2020 vanaf Cape Canaveral Space Force Station

Loading…

Volgende Passages (komende 24 uur)

TLE

VersSource: CelesTrak SupGP

Epoch: Sep 14, 2026, 20:23 UTC

1 45366C 20019G   26257.84979167 -.00000863  00000+0 -19710-4 0  2576
2 45366  53.1503   0.3696 0001854  31.1297 279.2586 15.42294122    10

Volg STARLINK-1262 in realtime met AllMySat

Download on the App Store